Cortland, IL

8:49 PM CST on February 24, 2017 (GMT -0600)
De Kalb Taylor Municipal

Weather History for KDKB - November, 2013

Change the Weather History Date:

Saturday, November 30, 2013

  Actual Average (KARR) Record (KARR)
Temperature  
Mean Temperature 35 °F -  
Max Temperature 47 °F 40 °F 63 °F (1998)
Min Temperature 23 °F 26 °F 11 °F (2002)
Degree Days  
Heating Degree Days 30    
Moisture  
Dew Point 26 °F    
Average Humidity 74    
Maximum Humidity 87    
Minimum Humidity 50    
Precipitation  
Precipitation 0.00 in - - ()
Sea Level Pressure  
Sea Level Pressure 30.16 in    
Wind  
Wind Speed 11 mph (SSW)    
Max Wind Speed 15 mph    
Max Gust Speed 18 mph    
Visibility 10 miles    
Events      
Averages and records for this station are not official NWS values.
T = Trace of Precipitation, MM = Missing Value Source: NWS Daily Summary

Daily Weather History Graph

Daily Weather History Graph

Search for Another Location

Airport or City:

Trip Planner

Search our weather history database for the weather conditions in past years. The results will help you decide how hot, cold, wet, or windy it might be!

Date:

Astronomy

Nov. 30, 2013 Rise Set
Actual Time 7:02 AM CST 4:24 PM CST
Civil Twilight 6:31 AM CST 4:55 PM CST
Nautical Twilight 5:56 AM CST 5:30 PM CST
Astronomical Twilight 5:23 AM CST 6:04 PM CST
Moon 4:10 AM CST (11/30) 2:50 PM CST (11/30)
Length of Visible Light 10h 24m
Length of Day
9h 22m
Waning Crescent, 7% of the Moon is Illuminated
Nov 30
Waning Crescent
Dec 2
New
Dec 9
First Quarter
Dec 17
Full
Dec 25
Last Quarter

Hourly Weather History & Observations

Time (CST) Temp. Windchill Dew Point Humidity Pressure Visibility Wind Dir Wind Speed Gust Speed Precip Events Conditions
12:15 AM 27.5 °F 17.4 °F 20.8 °F 76% 30.37 in 10.0 mi South 11.5 mph - N/A   Clear
12:35 AM 27.0 °F 16.7 °F 20.8 °F 78% 30.36 in 10.0 mi South 11.5 mph - N/A   Clear
12:55 AM 27.0 °F 16.1 °F 20.8 °F 78% 30.35 in 10.0 mi South 12.7 mph - N/A   Clear
1:15 AM 27.0 °F 16.7 °F 20.8 °F 78% 30.35 in 10.0 mi South 11.5 mph - N/A   Clear
1:35 AM 27.1 °F 16.9 °F 20.8 °F 77% 30.35 in 10.0 mi SSE 11.5 mph - N/A   Clear
1:55 AM 27.5 °F 18.6 °F 20.7 °F 75% 30.34 in 10.0 mi SSE 9.2 mph - N/A   Clear
2:15 AM 27.1 °F 17.5 °F 20.5 °F 76% 30.34 in 10.0 mi SSE 10.4 mph - N/A   Clear
2:35 AM 27.3 °F 17.7 °F 20.7 °F 76% 30.33 in 10.0 mi SSE 10.4 mph - N/A   Clear
2:55 AM 27.3 °F 17.7 °F 20.8 °F 77% 30.32 in 10.0 mi SSE 10.4 mph - N/A   Clear
3:15 AM 27.5 °F 17.4 °F 20.8 °F 76% 30.31 in 10.0 mi SSE 11.5 mph - N/A   Clear
3:35 AM 27.1 °F 16.4 °F 20.7 °F 77% 30.30 in 10.0 mi SSE 12.7 mph - N/A   Clear
3:55 AM 26.6 °F 16.2 °F 20.3 °F 77% 30.29 in 10.0 mi SSE 11.5 mph - N/A   Clear
4:15 AM 26.6 °F 16.2 °F 20.7 °F 78% 30.29 in 10.0 mi SSE 11.5 mph - N/A   Clear
4:35 AM 26.1 °F 16.8 °F 20.7 °F 80% 30.29 in 10.0 mi South 9.2 mph - N/A   Clear
4:55 AM 25.5 °F 15.5 °F 20.3 °F 81% 30.27 in 10.0 mi SSE 10.4 mph - N/A   Clear
5:15 AM 25.3 °F 14.7 °F 20.3 °F 81% 30.26 in 10.0 mi SSE 11.5 mph - N/A   Clear
5:35 AM 24.8 °F 14.6 °F 20.1 °F 82% 30.26 in 10.0 mi SSE 10.4 mph - N/A   Clear
5:55 AM 24.4 °F 14.9 °F 20.1 °F 84% 30.26 in 10.0 mi SSE 9.2 mph - N/A   Clear
6:15 AM 23.7 °F 13.3 °F 19.9 °F 85% 30.25 in 10.0 mi SSE 10.4 mph - N/A   Clear
6:35 AM 23.5 °F 13.7 °F 19.9 °F 86% 30.25 in 7.0 mi South 9.2 mph - N/A   Clear
6:55 AM 23.0 °F 12.4 °F 19.8 °F 87% 30.24 in 7.0 mi South 10.4 mph - N/A   Clear
7:15 AM 23.4 °F 12.8 °F 20.1 °F 87% 30.24 in 7.0 mi South 10.4 mph - N/A   Clear
7:35 AM 23.9 °F 13.5 °F 20.5 °F 87% 30.23 in 7.0 mi South 10.4 mph - N/A   Clear
7:55 AM 25.0 °F 14.8 °F 21.4 °F 86% 30.23 in 7.0 mi South 10.4 mph - N/A   Clear
8:15 AM 26.6 °F 16.2 °F 22.1 °F 83% 30.23 in 7.0 mi South 11.5 mph - N/A   Clear
8:35 AM 28.0 °F 17.5 °F 23.2 °F 82% 30.22 in 7.0 mi South 12.7 mph - N/A   Clear
8:55 AM 29.5 °F 19.3 °F 24.1 °F 80% 30.21 in 10.0 mi South 12.7 mph - N/A   Clear
9:15 AM 31.6 °F 21.6 °F 25.5 °F 78% 30.21 in 10.0 mi South 13.8 mph - N/A   Clear
9:35 AM 33.3 °F 23.7 °F 26.4 °F 76% 30.21 in 10.0 mi SSW 13.8 mph - N/A   Clear
9:55 AM 34.9 °F 25.3 °F 27.1 °F 73% 30.20 in 10.0 mi South 15.0 mph - N/A   Clear
10:15 AM 36.3 °F 27.5 °F 27.5 °F 70% 30.19 in 10.0 mi SSW 13.8 mph - N/A   Clear
10:35 AM 38.1 °F 29.5 °F 28.0 °F 67% 30.19 in 10.0 mi SSW 15.0 mph - N/A   Clear
10:55 AM 39.2 °F 31.2 °F 28.4 °F 65% 30.17 in 10.0 mi SSW 13.8 mph - N/A   Clear
11:15 AM 40.8 °F 33.7 °F 28.6 °F 62% 30.16 in 10.0 mi SSW 12.7 mph - N/A   Clear
11:35 AM 42.1 °F 35.2 °F 28.9 °F 60% 30.15 in 10.0 mi SSW 12.7 mph - N/A   Clear
11:55 AM 43.2 °F 37.0 °F 29.3 °F 58% 30.14 in 10.0 mi SSW 11.5 mph - N/A   Clear
12:15 PM 43.9 °F 37.9 °F 29.3 °F 57% 30.13 in 10.0 mi SSW 11.5 mph - N/A   Clear
12:35 PM 45.1 °F 39.1 °F 29.5 °F 54% 30.12 in 10.0 mi South 12.7 mph - N/A   Clear
12:55 PM 46.4 °F 41.1 °F 29.7 °F 52% 30.11 in 10.0 mi SSW 11.5 mph - N/A   Clear
1:15 PM 47.1 °F - 30.0 °F 51% 30.09 in 10.0 mi SSW 13.8 mph - N/A   Clear
1:35 PM 46.9 °F - 29.5 °F 51% 30.08 in 10.0 mi SSW 12.7 mph 16.1 mph N/A   Clear
1:55 PM 47.5 °F - 29.8 °F 50% 30.07 in 10.0 mi SSW 11.5 mph 18.4 mph N/A   Clear
2:15 PM 47.5 °F - 30.0 °F 51% 30.07 in 10.0 mi SSW 13.8 mph - N/A   Clear
2:35 PM 47.5 °F - 30.2 °F 51% 30.07 in 10.0 mi SSW 10.4 mph - N/A   Clear
2:55 PM 47.3 °F - 30.2 °F 52% 30.06 in 10.0 mi SSW 9.2 mph - N/A   Clear
3:15 PM 46.4 °F 42.4 °F 30.0 °F 53% 30.06 in 10.0 mi SSW 8.1 mph - N/A   Clear
3:35 PM 45.5 °F 40.3 °F 30.0 °F 55% 30.05 in 10.0 mi SSW 10.4 mph - N/A   Clear
3:55 PM 43.2 °F 37.9 °F 29.8 °F 59% 30.05 in 10.0 mi SSW 9.2 mph - N/A   Clear
4:15 PM 39.9 °F 34.5 °F 29.3 °F 66% 30.05 in 10.0 mi South 8.1 mph - N/A   Clear
4:35 PM 36.7 °F 30.5 °F 28.4 °F 72% 30.04 in 10.0 mi South 8.1 mph - N/A   Clear
4:55 PM 34.7 °F 28.1 °F 27.5 °F 75% 30.04 in 10.0 mi South 8.1 mph - N/A   Clear
5:15 PM 33.1 °F 26.1 °F 27.1 °F 79% 30.05 in 10.0 mi SSW 8.1 mph - N/A   Clear
5:35 PM 36.3 °F 29.5 °F 28.4 °F 73% 30.06 in 10.0 mi SW 9.2 mph - N/A   Clear
5:55 PM 37.4 °F 32.1 °F 28.9 °F 71% 30.07 in 10.0 mi WSW 6.9 mph - N/A   Clear
6:15 PM 36.7 °F 32.0 °F 28.4 °F 72% 30.08 in 10.0 mi WSW 5.8 mph - N/A   Clear
6:35 PM 36.7 °F 32.0 °F 28.4 °F 72% 30.08 in 10.0 mi SW 5.8 mph - N/A   Clear
6:55 PM 32.2 °F 25.8 °F 27.0 °F 81% 30.07 in 10.0 mi SSW 6.9 mph - N/A   Clear
7:15 PM 34.2 °F 29.0 °F 28.0 °F 78% 30.07 in 10.0 mi SSW 5.8 mph - N/A   Clear
7:35 PM 32.2 °F 26.7 °F 26.8 °F 80% 30.07 in 10.0 mi SSW 5.8 mph - N/A   Clear
7:55 PM 31.5 °F 25.8 °F 26.8 °F 83% 30.07 in 10.0 mi SW 5.8 mph - N/A   Clear
8:15 PM 32.0 °F 25.6 °F 27.0 °F 82% 30.06 in 10.0 mi SW 6.9 mph - N/A   Clear
8:35 PM 32.7 °F 26.4 °F 27.7 °F 82% 30.07 in 10.0 mi SW 6.9 mph - N/A   Clear
8:55 PM 34.0 °F 28.8 °F 28.8 °F 81% 30.06 in 10.0 mi SW 5.8 mph - N/A   Clear
9:15 PM 35.6 °F 30.7 °F 29.5 °F 78% 30.06 in 10.0 mi WSW 5.8 mph - N/A   Clear
9:35 PM 35.2 °F 30.3 °F 29.3 °F 79% 30.06 in 10.0 mi WSW 5.8 mph - N/A   Clear
9:55 PM 35.1 °F 30.1 °F 29.3 °F 80% 30.06 in 10.0 mi WSW 5.8 mph - N/A   Clear
10:15 PM 34.7 °F 28.8 °F 29.3 °F 81% 30.06 in 10.0 mi WSW 6.9 mph - N/A   Clear
10:35 PM 33.4 °F 28.1 °F 28.9 °F 84% 30.06 in 10.0 mi WSW 5.8 mph - N/A   Clear
10:55 PM 33.3 °F 27.9 °F 28.8 °F 84% 30.06 in 10.0 mi WSW 5.8 mph - N/A   Clear
11:15 PM 33.1 °F 27.7 °F 28.8 °F 84% 30.06 in 10.0 mi West 5.8 mph - N/A   Clear
11:35 PM 32.9 °F 28.5 °F 28.9 °F 85% 30.06 in 10.0 mi West 4.6 mph - N/A   Clear
11:55 PM 32.2 °F 26.7 °F 28.2 °F 85% 30.06 in 10.0 mi West 5.8 mph - N/A   Clear